Location: Obersdorf
(47.4079°N, 10.2781°E)
Time: 07:01:07
(UTC+02:00)

COSMOS 2251 DEB - Pass Details

Date: 04 July 2022
Orbit: 490 x 570 km, 73.9° (Epoch: 06 August)

Event Time Altitude Azimuth Distance (km) Brightness Sun altitude
Exits shadow 03:56:27 - 160° (SSE) 2,545 ? -11.7°
Reaches altitude 10° 03:58:34 10° 146° (SE) 1,852 ? -11.5°
Maximum altitude 04:01:30 19° 100° (E) 1,354 ? -11.2°
Drops below altitude 10° 04:04:25 10° 54° (NE) 1,832 ? -10.9°
Sets 04:07:03 0° 37° (NE) 2,714 ? -10.6°
